KUIPER-00070

Last updated on Sat Aug 16 2025 00:02:05 GMT+0000 (Coordinated Universal Time)

1 64817U 25151B 25227.58336806 -.00879360 00000+0 -44753-1 0 9995 2 64817 51.8878 142.7062 0006839 266.2367 155.3435 15.18852094 4615
UTC large
Height (km)
Speed (km/s)
/
Latitude / Longitude
Inclination (degrees)
Orbital Period (minutes)
Azimuth
Elevation
Range (km)
Doppler Factor

Next 0 passes for location: London (51.5072 / 0.1276)

Sorry there are no passes over London.